Погода в Палолеме

Индия     14°50′37″N   74°05′55″E
темп.,
°C
ветер,
м/с
пор.,
м/с
влажн.,
%
обл.,
%
осадки,
мм/ч
давл.,
гПа
погр.,
м
24 сентября, пт
пт2423:30+27сз5684100 7.2 1009521
02:30+26зсз5684100 4.3 1008507
05:30+26сз458498 8.0 1008482
08:30+27сз4482100 1.3 1010544
11:30+27сз448198 1.8 1009521
14:30+27сз4581100 1.1 1006469
17:30+27зсз5683100 3.6 1006415
20:30+27сз4582100 3.2 1009352
25 сентября, сб
сб2523:30+27сз348094 4.9 1009430
02:30+27зсз338194 1.4 1008317
05:30+27сз3380100 2.8 1008430
08:30+27сз3380100 0.3 1010496
11:30+27зсз4480100 0.6 1010556
14:30+27зсз457886 0.6 1007601
17:30+28зсз557876 1.1 1007745
20:30+27зсз5680100 1.1 1009579
26 сентября, вс
вс2623:30+27зсз558195 3.6 1009458
02:30+27зсз5681100 2.4 1007544
05:30+27зсз568098 3.9 1006622
08:30+27сз4580100 2.4 1008442
11:30+28зсз5579100 3.1 1008642
14:30+28зсз5679100 0.2 1005705
17:30+28сз5680100 0.4 1005708
20:30+27сз458111 0.3 1007597
27 сентября, пн
пн2723:30+27сз457997 0.6 1007690
02:30+27сз4579100 0.1 1005712
05:30+27сз4578100 0.3 1005687
08:30+27сз3377100 0.1 1007603
11:30+27зсз3376100 0.1 1006609
14:30+27з3476100 0.1 1003682
17:30+27зсз4477100 1.0 1004541
20:30+27з2276100 0.3 1006310
28 сентября, вт
вт2823:30+27з3476100 0.9 1006425
02:30+26зсз4481100 2.3 1004362
05:30+26з348092 5.5 1005297
08:30+26з3479100 2.8 1007296
11:30+27зюз4580100 6.1 1007521
14:30+27зюз6781100 4.7 1005663
17:30+27зюз6781100 9.7 1005687
20:30+27зюз678282 4.3 1007629